This is the latest recevied weather packets stored in our database for station/object VK3MAK-1. If no packets are shown the sender has not sent any weather packets the latest 10 day(s).
| Time | Temp. | Humidity | Pressure | Rain* | Wind** | Luminosity | Snow |
|---|---|---|---|---|---|---|---|
| 1777672804 | 16.67° C | 53% | 1015.9 hPa | 0 mm | 3.13 m/s, 0° | - | - |
| 1777672204 | 16.67° C | 53% | 1015.9 hPa | 0 mm | 3.13 m/s, 0° | - | - |
| 1777671604 | 16.67° C | 53% | 1015.9 hPa | 0 mm | 3.13 m/s, 0° | - | - |
| 1777671003 | 16.67° C | 53% | 1015.7 hPa | 0 mm | 3.58 m/s, 23° | - | - |
| 1777670404 | 16.67° C | 53% | 1015.7 hPa | 0 mm | 3.58 m/s, 23° | - | - |
| 1777669804 | 16.67° C | 53% | 1015.7 hPa | 0 mm | 3.58 m/s, 23° | - | - |
| 1777669204 | 16.67° C | 53% | 1015.5 hPa | 0 mm | 4.02 m/s, 45° | - | - |
| 1777668604 | 16.67° C | 53% | 1015.5 hPa | 0 mm | 4.02 m/s, 45° | - | - |
| 1777668004 | 16.67° C | 53% | 1015.5 hPa | 0 mm | 4.02 m/s, 45° | - | - |
| 1777667403 | 15° C | 62% | 1015.5 hPa | 0 mm | 3.13 m/s, 23° | - | - |
| 1777666803 | 15° C | 62% | 1015.5 hPa | 0 mm | 3.13 m/s, 23° | - | - |
| 1777666204 | 15° C | 62% | 1015.5 hPa | 0 mm | 3.13 m/s, 23° | - | - |
| 1777665605 | 15° C | 62% | 1015.6 hPa | 0 mm | 2.68 m/s, 23° | - | - |
| 1777665006 | 15° C | 62% | 1015.6 hPa | 0 mm | 2.68 m/s, 23° | - | - |
| 1777664404 | 15° C | 62% | 1015.6 hPa | 0 mm | 2.68 m/s, 23° | - | - |
| 1777663804 | 15° C | 62% | 1015.6 hPa | 0 mm | 2.24 m/s, 0° | - | - |
| 1777663204 | 15° C | 62% | 1015.6 hPa | 0 mm | 2.24 m/s, 0° | - | - |
| 1777662603 | 15° C | 62% | 1015.6 hPa | 0 mm | 2.24 m/s, 0° | - | - |
| 1777662004 | 16.11° C | 56% | 1015.9 hPa | 0 mm | 2.24 m/s, 23° | - | - |
| 1777661404 | 16.11° C | 56% | 1015.9 hPa | 0 mm | 2.24 m/s, 23° | - | - |
| 1777660803 | 16.11° C | 56% | 1015.9 hPa | 0 mm | 2.24 m/s, 23° | - | - |
| 1777660203 | 16.67° C | 54% | 1016.2 hPa | 0 mm | 3.13 m/s, 23° | - | - |
| 1777659604 | 16.67° C | 54% | 1016.2 hPa | 0 mm | 3.13 m/s, 23° | - | - |
| 1777659004 | 16.67° C | 54% | 1016.2 hPa | 0 mm | 3.13 m/s, 23° | - | - |
| 1777658406 | 16.67° C | 55% | 1016.3 hPa | 0 mm | 3.13 m/s, 23° | - | - |
* Rain latest hour (hover to see other rain measurements)
** Current wind speed in m/s (hover to see current wind gust speed)